Regional Weather Roundup
Issued by NWS Newport/Morehead, NC

Current Version | Previous Version | Text Only | Print | Product List | Glossary On
Versions: 1 2 3 4 5 6 7 8 9 10 11 12 13 14 15 16 17 18 19 20 21 22 23 24 25 26 27 28 29 30 31 32 33 34 35 36 37 38 39 40 41 42 43 44 45 46 47 48 49 50
000 ASUS42 KMHX 171010 RWRMHX WEATHER ROUNDUP FOR EASTERN NORTH CAROLINA NATIONAL WEATHER SERVICE NEWPORT/MOREHEAD CITY NC 600 AM EDT WED SEP 17 2014 NOTE: "FAIR" INDICATES FEW OR NO CLOUDS BELOW 12,000 FEET WITH NO SIGNIFICANT WEATHER AND/OR OBSTRUCTIONS TO VISIBILITY NCZ015>017-031-032-045>047-102-103-171100- NORTH COAST CITY SKY/WX TMP DP RH WIND PRES REMARKS EDENTON CLOUDY 67 64 91 N5 29.96R ELIZABETH CITY CLOUDY 70 65 84 NE9 29.96R KITTY HAWK CLOUDY 73 62 68 E8 29.94S MANTEO CLOUDY 73 64 73 NE10 29.95S $$ NCZ045>047-081-094-103-104-171100- CENTRAL COAST CITY SKY/WX TMP DP RH WIND PRES REMARKS FRISCO CLOUDY 70 68 93 NE7 29.91F SWANQUARTER N/A 70 N/A N/A N6 29.91R $$ NCZ095-097-098-100-101-171100- SOUTHERN COAST CITY SKY/WX TMP DP RH WIND PRES REMARKS BEAUFORT MOCLDY 72 70 93 E3 29.91R CEDAR ISLAND N/A 75 N/A N/A E12 29.94S JACKSONVILLE PTCLDY 68 65 90 NW8 29.91S NEWPORT NOT AVBL PINEY ISLAND LGT RAIN 74 71 91 CALM 29.92R FOG WILMINGTON MOCLDY 66 64 93 CALM 29.92R $$ NCZ011>013-027>030-043-044-078>080-089-090>093-098-171100- COASTAL PLAIN CITY SKY/WX TMP DP RH WIND PRES REMARKS AHOSKIE CLOUDY 66 61 84 N5 29.97S CLINTON CLOUDY 65 65 100 N6 29.93F ELIZABETHTOWN LGT RAIN 65 65 100 W3 29.93R GOLDSBORO CLOUDY 70 68 94 CALM 29.93R GREENVILLE CLOUDY 70 64 83 NE6 29.97R HAVELOCK HVY RAIN 72 69 90 CALM 29.92R FOG KENANSVILLE CLOUDY 65 64 94 N3 29.94R KINSTON CLOUDY 69 68 94 N7 29.95R NEW BERN RAIN 72 70 94 N6 29.93R FOG RICHLANDS MOCLDY 66 63 88 NW6 29.93R ROANOKE RAPIDS NOT AVBL ROCKY MOUNT CLOUDY 68 63 84 NE6 29.96R WASHINGTON CLOUDY 67 65 92 N5 29.95R WHITEVILLE MOCLDY 65 64 94 CALM 29.92R $$ AMZ130-135-150-152-154-156-158-170-250-252-270-ANZ085-086-088-633-658-670-171100- MARINE OBSERVATIONS STATION/POSITION TIME TEMP WIND PRES WAVE SWELL AIR SEA DIR/SP/G HT/PER HT/PER (UTC) (F) (DEG/KT/KT) (MB) (FT/S) (FT/S) CHESAPEAKE LIGHT 0900 71 50/ 12/ 13 1015.6 BUOY 44014 1000 73 78 50/ 14/ 17 1014.0 3/15 3/15 DUCK 1000 74 76 60/ 12/ 15 1013.6 2E DUCK 1000 N/A 3/15 2/15 OREGON INLET 1000 73 76 40/ 10/ 14 1013.5 BUOY 44095 1000 76 N/A 3/15 2/15 20E OREGON INLET NOT AVBL HATTERAS CG 1000 74 80 70/ 8/ 11 1013.1 DIAMOND BUOY 1000 75 20/ 8/ 12 1012.7 3/14 3/14 CAPE LOOKOUT 0900 73 80/ 10/ 11 1012.1 BEAUFORT LAB 1000 72 80 60/ 2/ 4 1012.3 30 SE NEW RIVER 1000 76 81 60/ 14/ 16 1012.3 3/13 2/13 5 SE WRIGHTSVILL 0900 68 81 20/ 14/ 16 N/A BUOY 41002 0950 77 82 210/ 4/ 6 1012.4 6/14 5/14 BUOY 41004 1000 75 83 310/ 4/ 6 1012.6 2/12 2/12 $$

USA.gov is the U.S. government's official web portal to all federal, state and local government web resources and services.